• In Netherlands
  • List of Countries
  • For 7 days
  • Water Temperature
  • Satellite Maps
  • Weather Map
  • Weather Widgets
  • user-avatar
    Login

    Hourly Weather Biskira

    Today, 19 November, Sunday

    Time Temperature Precipitation Wind Pressure Humidity
    00:00 +15°C° 0 mm 2 mps 755 mmHg 54%
    01:00 +15°C° 0 mm 2 mps 755 mmHg 55%
    02:00 +14°C° 0 mm 1 mps 755 mmHg 57%
    03:00 +14°C° 0 mm 1 mps 755 mmHg 58%
    04:00 +14°C° 0 mm 1 mps 755 mmHg 58%
    05:00 +14°C° 0 mm 2 mps 755 mmHg 58%
    06:00 +13°C° 0 mm 2 mps 755 mmHg 58%
    07:00 +15°C° 0 mm 1 mps 756 mmHg 53%
    08:00 +16°C° 0 mm 1 mps 756 mmHg 47%
    09:00 +19°C° 0 mm 1 mps 756 mmHg 42%
    10:00 +20°C° 0 mm 1 mps 756 mmHg 39%
    11:00 +19°C° 0 mm 2 mps 756 mmHg 36%
    12:00 +20°C° 0 mm 2 mps 756 mmHg 32%
    13:00 +20°C° 0 mm 2 mps 755 mmHg 31%
    14:00 +21°C° 0 mm 2 mps 755 mmHg 30%
    15:00 +21°C° 0 mm 2 mps 755 mmHg 29%
    16:00 +20°C° 0 mm 2 mps 755 mmHg 33%
    17:00 +19°C° 0 mm 2 mps 755 mmHg 36%
    18:00 +18°C° 0 mm 1 mps 756 mmHg 40%
    19:00 +18°C° 0 mm 1 mps 756 mmHg 41%
    20:00 +16°C° 0 mm 1 mps 756 mmHg 42%
    21:00 +16°C° 0 mm 1 mps 757 mmHg 44%
    22:00 +16°C° 0 mm 1 mps 757 mmHg 45%
    23:00 +15°C° 0 mm 1 mps 757 mmHg 46%

    Tomorrow, 20 November, Monday

    Time Temperature Precipitation Wind Pressure Humidity
    00:00 +15°C° 0 mm 1 mps 757 mmHg 47%
    01:00 +14°C° 0 mm 1 mps 757 mmHg 48%
    02:00 +14°C° 0 mm 1 mps 757 mmHg 49%
    03:00 +13°C° 0 mm 1 mps 757 mmHg 49%
    04:00 +13°C° 0 mm 1 mps 757 mmHg 49%
    05:00 +13°C° 0 mm 1 mps 757 mmHg 49%
    06:00 +13°C° 0 mm 1 mps 757 mmHg 49%
    07:00 +14°C° 0 mm 1 mps 758 mmHg 44%
    08:00 +16°C° 0 mm 1 mps 758 mmHg 38%
    09:00 +19°C° 0 mm 1 mps 759 mmHg 32%
    10:00 +20°C° 0 mm 1 mps 758 mmHg 31%
    11:00 +21°C° 0 mm 1 mps 758 mmHg 29%
    12:00 +21°C° 0 mm 1 mps 758 mmHg 27%
    13:00 +22°C° 0 mm 1 mps 757 mmHg 27%
    14:00 +22°C° 0 mm 1 mps 757 mmHg 26%
    15:00 +22°C° 0 mm 1 mps 757 mmHg 26%
    16:00 +21°C° 0 mm 1 mps 757 mmHg 29%
    17:00 +19°C° 0 mm 1 mps 757 mmHg 33%
    18:00 +18°C° 0 mm 1 mps 758 mmHg 36%
    19:00 +16°C° 0 mm 1 mps 758 mmHg 38%
    20:00 +16°C° 0 mm 1 mps 758 mmHg 39%
    21:00 +15°C° 0 mm 1 mps 758 mmHg 40%
    22:00 +15°C° 0 mm 1 mps 758 mmHg 41%
    23:00 +15°C° 0 mm 1 mps 758 mmHg 42%

    Day after tomorrow, 21 November, Tuesday

    Time Temperature Precipitation Wind Pressure Humidity
    00:00 +14°C° 0 mm 1 mps 758 mmHg 43%
    01:00 +14°C° 0 mm 1 mps 758 mmHg 45%
    02:00 +13°C° 0 mm 1 mps 758 mmHg 46%
    03:00 +13°C° 0 mm 1 mps 757 mmHg 47%
    04:00 +11°C° 0 mm 0 mps 757 mmHg 47%
    05:00 +11°C° 0 mm 0 mps 757 mmHg 48%
    06:00 +11°C° 0 mm 0 mps 757 mmHg 48%
    07:00 +13°C° 0 mm 0 mps 758 mmHg 43%
    08:00 +15°C° 0 mm 0 mps 758 mmHg 37%
    09:00 +19°C° 0 mm 1 mps 758 mmHg 32%
    10:00 +19°C° 0 mm 1 mps 758 mmHg 30%
    11:00 +20°C° 0 mm 1 mps 757 mmHg 28%
    12:00 +21°C° 0 mm 1 mps 757 mmHg 27%
    13:00 +21°C° 0 mm 1 mps 757 mmHg 26%
    14:00 +21°C° 0 mm 1 mps 756 mmHg 25%
    15:00 +21°C° 0 mm 1 mps 756 mmHg 25%
    16:00 +20°C° 0 mm 1 mps 756 mmHg 28%
    17:00 +19°C° 0 mm 1 mps 756 mmHg 32%
    18:00 +16°C° 0 mm 0 mps 756 mmHg 35%
    19:00 +15°C° 0 mm 0 mps 756 mmHg 36%
    20:00 +15°C° 0 mm 0 mps 756 mmHg 37%
    21:00 +15°C° 0 mm 0 mps 756 mmHg 38%
    22:00 +14°C° 0 mm 0 mps 756 mmHg 39%
    23:00 +14°C° 0 mm 0 mps 756 mmHg 40%

    22 November, Wednesday

    Time Temperature Precipitation Wind Pressure Humidity
    00:00 +13°C° 0 mm 0 mps 756 mmHg 41%
    01:00 +13°C° 0 mm 0 mps 756 mmHg 42%
    02:00 +12°C° 0 mm 0 mps 755 mmHg 42%
    03:00 +12°C° 0 mm 0 mps 755 mmHg 43%
    04:00 +12°C° 0 mm 0 mps 755 mmHg 43%
    05:00 +11°C° 0 mm 0 mps 755 mmHg 43%
    06:00 +11°C° 0 mm 0 mps 755 mmHg 43%
    07:00 +13°C° 0 mm 0 mps 755 mmHg 38%
    08:00 +15°C° 0 mm 0 mps 755 mmHg 32%
    09:00 +17°C° 0 mm 0 mps 756 mmHg 27%
    10:00 +20°C° 0 mm 1 mps 755 mmHg 25%
    11:00 +21°C° 0 mm 1 mps 755 mmHg 23%
    12:00 +20°C° 0 mm 2 mps 755 mmHg 22%
    13:00 +20°C° 0 mm 2 mps 755 mmHg 22%
    14:00 +20°C° 0 mm 2 mps 754 mmHg 22%
    15:00 +20°C° 0 mm 2 mps 754 mmHg 22%
    16:00 +20°C° 0 mm 1 mps 754 mmHg 26%
    17:00 +19°C° 0 mm 1 mps 755 mmHg 29%
    18:00 +15°C° 0 mm 0 mps 755 mmHg 32%
    19:00 +16°C° 0 mm 1 mps 755 mmHg 33%
    20:00 +16°C° 0 mm 1 mps 755 mmHg 33%
    21:00 +15°C° 0 mm 1 mps 756 mmHg 34%
    22:00 +14°C° 0 mm 0 mps 756 mmHg 34%
    23:00 +13°C° 0 mm 0 mps 756 mmHg 35%

    23 November, Thursday

    Time Temperature Precipitation Wind Pressure Humidity
    00:00 +13°C° 0 mm 0 mps 756 mmHg 36%
    01:00 +14°C° 0 mm 1 mps 756 mmHg 36%
    02:00 +14°C° 0 mm 1 mps 756 mmHg 36%
    03:00 +13°C° 0 mm 1 mps 755 mmHg 36%
    04:00 +13°C° 0 mm 1 mps 756 mmHg 37%
    05:00 +13°C° 0 mm 1 mps 756 mmHg 37%
    06:00 +12°C° 0 mm 0 mps 756 mmHg 38%
    07:00 +13°C° 0 mm 0 mps 757 mmHg 34%
    08:00 +15°C° 0 mm 0 mps 757 mmHg 31%
    09:00 +17°C° 0 mm 0 mps 758 mmHg 27%
    10:00 +20°C° 0 mm 1 mps 757 mmHg 27%
    11:00 +21°C° 0 mm 1 mps 757 mmHg 27%
    12:00 +21°C° 0 mm 1 mps 757 mmHg 27%
    13:00 +21°C° 0 mm 1 mps 757 mmHg 28%
    14:00 +22°C° 0 mm 1 mps 757 mmHg 28%
    15:00 +22°C° 0 mm 1 mps 757 mmHg 28%
    16:00 +20°C° 0 mm 1 mps 757 mmHg 32%
    17:00 +19°C° 0 mm 1 mps 757 mmHg 35%
    18:00 +16°C° 0 mm 0 mps 758 mmHg 38%
    19:00 +18°C° 0 mm 1 mps 758 mmHg 38%
    20:00 +18°C° 0 mm 1 mps 758 mmHg 38%
    21:00 +16°C° 0 mm 1 mps 758 mmHg 38%
    22:00 +16°C° 0 mm 1 mps 758 mmHg 38%
    23:00 +16°C° 0 mm 1 mps 758 mmHg 38%

    24 November, Friday

    Time Temperature Precipitation Wind Pressure Humidity
    00:00 +16°C° 0 mm 1 mps 758 mmHg 38%
    01:00 +15°C° 0 mm 1 mps 758 mmHg 39%
    02:00 +14°C° 0 mm 0 mps 758 mmHg 39%
    03:00 +14°C° 0 mm 0 mps 758 mmHg 40%
    04:00 +13°C° 0 mm 0 mps 758 mmHg 41%
    05:00 +13°C° 0 mm 0 mps 758 mmHg 42%
    06:00 +13°C° 0 mm 0 mps 758 mmHg 43%
    07:00 +14°C° 0 mm 0 mps 759 mmHg 39%
    08:00 +16°C° 0 mm 0 mps 759 mmHg 35%
    09:00 +18°C° 0 mm 0 mps 759 mmHg 31%
    10:00 +21°C° 0 mm 1 mps 759 mmHg 31%
    11:00 +22°C° 0 mm 1 mps 759 mmHg 31%
    12:00 +23°C° 0 mm 1 mps 758 mmHg 31%
    13:00 +23°C° 0 mm 1 mps 758 mmHg 31%
    14:00 +23°C° 0 mm 1 mps 758 mmHg 31%
    15:00 +23°C° 0 mm 1 mps 758 mmHg 31%
    16:00 +22°C° 0 mm 1 mps 758 mmHg 35%
    17:00 +18°C° 0 mm 0 mps 758 mmHg 40%
    18:00 +17°C° 0 mm 0 mps 759 mmHg 44%
    19:00 +16°C° 0 mm 0 mps 759 mmHg 45%
    20:00 +16°C° 0 mm 0 mps 759 mmHg 46%
    21:00 +15°C° 0 mm 0 mps 759 mmHg 47%
    22:00 +15°C° 0 mm 0 mps 759 mmHg 49%
    23:00 +15°C° 0 mm 0 mps 759 mmHg 50%
    Show more